Flag for Australia Weather past 2 weeks in Adelaide, South Australia, Australia

Now
73 °F

Sunny.


Feels Like: 77 °F
Forecast: 56 / 75 °F
Wind: 22 mph from Southwest

Location: Adelaide Airport

Current Time: Oct 22, 2014 at 2:44:39 PM

Latest Report: Oct 22, 2014 at 2:00 PM


Visibility: 10 mi

Pressure: 30.01 "Hg

Humidity: 57%

Dew point: 57 °F

Location of AdelaideLocation

Historic Weather in Adelaide — Graph

°F

Adelaide temperature yesterday

Maximum temperature yesterday: 99 °F (at 1:00 PM)
Minimum temperature yesterday: 75 °F (at 3:30 AM)
Average temperature yesterday: 85 °F

Past Weeks' High & Low Weather Summary

 TemperatureHumidityPressure
High99 °F (Oct 21, 1:00 PM)94% (Oct 12, 7:00 AM)30.36 "Hg (Oct 12, 7:00 AM)
Low41 °F (Oct 15, 5:30 AM)5% (Oct 18, 5:30 PM)29.80 "Hg (Oct 10, 3:30 AM)
Average64 °F49%30.11 "Hg
* Reported Oct 7 12:30 PM — Oct 22 1:00 PM, Adelaide, Weather by CustomWeather, © 2014

Note: Actual official high and low records may vary slightly from our data, if they occured in-between our weather recording intervals... More about our weather records

Advertising

Adelaide weather history for previous 24 hours

 ConditionsComfort  
Time TempWeatherWind HumidityBarometerVisibility
1:00 PM
Oct 22
73 °FSunny.16 mph57%30.01 "Hg10 mi
12:30 PM75 °FSunny.15 mph54%30.01 "Hg10 mi
12:00 PM75 °FSunny.12 mph54%30.01 "Hg10 mi
11:30 AM73 °FSunny.10 mph61%30.01 "Hg10 mi
11:00 AM75 °FSunny.9 mph47%30.01 "Hg10 mi
10:30 AM77 °FSunny.8 mph34%30.01 "Hg10 mi
10:00 AM72 °FSunny.9 mph57%30.01 "Hg10 mi
9:30 AM72 °FSunny.6 mph65%30.01 "Hg10 mi
9:00 AM72 °FSunny.6 mph65%30.01 "Hg10 mi
8:30 AM73 °FSunny.No wind57%30.01 "Hg10 mi
8:00 AM68 °FSunny.1 mph69%30.01 "Hg10 mi
7:30 AM66 °FSunny.6 mph73%29.98 "Hg10 mi
7:00 AM64 °FSunny.8 mph78%29.98 "Hg10 mi
6:30 AM68 °FSunny.6 mph56%29.98 "Hg10 mi
6:00 AM68 °FSunny.6 mph49%29.98 "Hg10 mi
5:30 AM66 °FClear.6 mph49%29.95 "Hg10 mi
5:00 AM66 °FClear.2 mph46%29.95 "Hg10 mi
4:30 AM70 °FClear.3 mph38%29.95 "Hg10 mi
4:00 AM70 °FClear.5 mph40%29.95 "Hg10 mi
3:30 AM66 °FClear.5 mph52%29.95 "Hg10 mi
3:00 AM70 °FClear.5 mph46%29.95 "Hg10 mi
2:30 AM68 °FClear.6 mph60%29.95 "Hg10 mi
2:00 AM68 °FClear.7 mph64%29.98 "Hg10 mi
1:30 AM72 °FClear.14 mph50%29.98 "Hg10 mi
12:30 AM77 °FClear.9 mph28%29.98 "Hg10 mi
12:00 AM79 °FClear.7 mph26%29.98 "Hg10 mi
11:30 PM
Oct 21
79 °FClear.7 mph26%30.01 "Hg10 mi
11:00 PM81 °FClear.9 mph23%30.01 "Hg10 mi
10:30 PM86 °FClear.8 mph15%30.01 "Hg10 mi
10:00 PM81 °FClear.8 mph24%30.01 "Hg10 mi
9:30 PM81 °FClear.9 mph23%30.01 "Hg10 mi
9:00 PM81 °FClear.5 mph24%30.01 "Hg10 mi
8:30 PM82 °FClear.10 mph25%29.98 "Hg10 mi
8:00 PM82 °FClear.8 mph23%29.98 "Hg10 mi
7:30 PM86 °FClear.9 mph20%29.98 "Hg10 mi
7:00 PM90 °FSunny.7 mph15%29.98 "Hg10 mi
6:30 PM91 °FSunny.5 mph14%29.98 "Hg10 mi
6:00 PM93 °FSunny.5 mph12%29.98 "Hg10 mi
5:30 PM93 °FSunny.No wind13%29.98 "Hg10 mi
5:00 PM93 °FSunny.No wind11%30.01 "Hg10 mi
4:30 PM93 °FSunny.5 mph11%30.01 "Hg10 mi
4:00 PM93 °FSunny.7 mph12%30.01 "Hg10 mi
3:30 PM95 °FSunny.9 mph9%30.01 "Hg10 mi
3:00 PM97 °FSunny.9 mph8%30.01 "Hg10 mi
2:30 PM97 °FSunny.10 mph7%30.04 "Hg10 mi
2:00 PM97 °FSunny.14 mph7%30.04 "Hg10 mi
Weather by CustomWeather, © 2014

See weather overviewHow to use our weather pages